Date,TemperatureHighF,TemperatureAvgF,TemperatureLowF,DewpointHighF,DewpointAvgF,DewpointLowF,HumidityHigh,HumidityAvg,HumidityLow,PressureMaxIn,PressureMinIn,WindSpeedMaxMPH,WindSpeedAvgMPH,GustSpeedMaxMPH,PrecipitationSumIn
2013-1-3,20,17,15,15,13,12,86,83,78,30.52,30.46,9,2,9,0.00
2013-1-4,35,22,15,20,15,12,90,77,52,30.47,30.28,10,4,12,0.00
2013-1-5,30,23,17,24,17,12,90,80,64,30.35,30.12,27,4,27,0.00
2013-1-6,19,16,13,15,12,10,88,85,82,30.45,30.34,16,4,16,0.00
2013-3-11,31,26,20,26,22,18,92,83,70,30.09,29.97,7,4,17,0.00
2013-3-12,33,28,22,25,22,19,91,77,67,30.41,30.10,12,6,29,0.00
2013-3-13,37,28,18,23,19,14,86,70,49,30.54,30.34,6,2,13,0.00
2013-3-14,57,43,32,40,32,23,82,66,52,30.33,30.11,5,2,13,0.00
2013-3-15,61,47,39,44,39,35,89,74,49,30.12,29.76,7,2,15,0.00
2013-3-16,39,32,28,36,27,22,91,82,71,30.27,29.89,9,4,24,0.00
2013-3-17,46,33,23,33,25,18,91,73,52,30.25,28.40,6,3,17,0.02
2013-3-18,36,33,28,33,22,14,95,65,42,28.73,28.38,15,7,34,0.05
2013-3-19,49,32,21,24,17,10,71,54,33,29.00,28.72,9,4,24,0.00
2013-3-20,34,24,15,15,9,4,73,52,34,29.09,28.81,8,4,21,0.00
2013-3-21,32,26,19,19,14,12,81,60,45,28.81,28.61,5,2,13,0.00
2013-3-22,34,30,25,22,19,17,75,63,52,28.72,28.66,3,1,10,0.00
2013-3-23,37,31,27,28,25,20,94,78,55,28.80,28.70,5,2,16,0.07
2013-3-24,28,26,24,26,22,19,94,85,72,28.77,28.71,10,6,25,0.02
2013-3-25,29,26,23,24,22,19,92,84,70,29.04,28.77,8,5,21,0.00
2013-3-26,40,29,17,24,19,14,92,69,48,29.08,28.93,5,2,13,0.00
2013-3-27,54,39,26,32,26,21,82,63,41,28.97,28.85,5,2,15,0.00
2013-3-28,60,45,31,35,31,27,88,61,35,28.92,28.80,4,1,11,0.00
2013-3-29,69,53,36,40,34,32,92,54,26,28.88,28.68,5,2,16,0.00
2013-3-30,67,56,48,53,43,34,93,64,32,28.72,28.52,7,3,17,0.17
2013-3-31,56,47,32,41,32,22,91,61,27,28.79,28.57,11,4,22,0.07
2013-4-1,32,26,22,30,23,17,91,86,81,28.95,28.79,6,4,19,0.00
2013-4-2,52,38,26,25,21,18,76,53,33,29.02,28.91,4,1,12,0.00
2013-4-3,58,42,31,28,25,22,70,52,31,29.02,28.87,6,3,18,0.00
2013-4-4,63,48,33,39,32,25,80,55,39,28.89,28.69,7,3,17,0.00
2013-4-5,68,52,34,41,35,29,82,55,36,28.82,28.36,6,3,18,0.00
2013-4-6,70,60,52,46,41,38,69,52,33,28.40,28.21,11,5,33,0.00
2013-4-7,76,58,44,50,43,38,84,61,32,28.48,28.25,7,2,19,0.07
2013-4-8,68,58,48,59,54,46,95,86,70,28.34,28.24,6,2,16,0.01
2013-4-9,62,46,34,59,44,33,96,94,89,28.60,28.21,9,4,25,1.05
2013-4-10,38,35,32,37,34,31,97,96,95,28.63,28.44,9,4,21,0.51
2013-4-11,35,32,29,32,30,28,96,92,85,28.47,28.32,8,5,19,0.00
2013-4-12,40,35,32,30,28,26,90,79,65,28.69,28.40,9,6,22,0.00
2013-4-13,54,41,27,39,32,24,89,72,55,28.71,28.33,7,3,18,0.00
2013-4-14,67,53,42,52,43,35,90,71,46,28.36,28.00,13,5,30,0.12
2013-4-15,47,40,33,35,29,23,82,63,54,28.75,28.31,9,4,19,0.00
2013-4-16,53,43,35,34,30,27,76,62,42,28.91,28.73,6,3,15,0.00
2013-4-17,46,41,36,42,37,33,100,88,64,28.83,28.33,9,4,21,0.74
2013-4-18,36,33,31,35,31,27,96,92,82,28.58,28.35,13,8,30,0.37
2013-4-19,47,36,28,27,23,20,83,60,36,28.78,28.53,12,7,28,0.00
2013-4-20,48,38,27,29,23,19,81,56,36,28.94,28.78,6,2,18,0.00
2013-4-21,68,54,44,50,39,29,94,58,35,28.81,28.63,13,5,29,0.77
2013-4-22,51,44,32,50,43,29,100,96,90,28.85,28.58,10,3,25,0.87
2013-4-23,40,33,28,29,25,21,92,72,55,28.92,28.83,10,6,24,0.00
2013-4-24,60,41,25,39,27,21,86,62,26,28.89,28.70,12,4,27,0.02
2013-4-25,71,52,32,37,33,28,92,54,26,28.92,28.67,9,3,25,0.00
2013-4-26,71,59,50,51,44,36,85,58,43,28.81,28.66,8,4,23,0.00
2013-4-27,69,56,45,53,48,43,95,76,51,28.84,28.58,4,1,11,0.00
2013-4-28,82,64,47,55,49,44,93,62,30,28.59,28.30,10,3,23,0.00
2013-4-29,87,70,56,58,53,48,86,59,27,28.36,28.11,6,2,15,0.00
2013-4-30,76,69,59,57,50,44,63,52,41,28.48,28.08,8,4,25,0.05
2013-5-1,60,42,32,46,37,31,95,83,56,29.08,28.49,8,6,25,0.56
2013-5-2,48,39,32,33,31,28,96,74,49,29.21,29.06,9,5,26,0.57
2013-5-3,45,39,32,33,29,26,82,67,57,29.06,28.70,8,4,22,0.00
2013-5-4,43,39,34,40,36,32,94,90,81,28.80,28.64,8,6,20,0.08
2013-5-5,54,46,41,48,43,39,100,90,81,28.83,28.76,5,3,14,0.01
2013-5-6,68,55,47,54,49,45,96,81,60,28.80,28.67,3,2,10,0.00
2013-5-7,76,63,50,56,52,48,95,71,42,28.71,28.56,5,1,14,0.01
2013-5-8,70,63,58,58,56,52,87,78,64,28.58,28.50,6,1,14,0.00
2013-5-9,70,59,55,59,56,53,99,89,63,28.61,28.48,7,2,19,0.99
2013-5-10,70,60,49,52,47,45,91,65,41,28.72,28.60,15,3,21,0.00
2013-5-11,61,55,48,46,30,22,76,41,24,28.88,28.65,28,4,28,0.00
2013-5-12,66,53,36,31,26,21,68,37,21,28.93,28.75,12,1,12,0.00
2013-5-13,84,67,48,53,43,28,72,43,26,28.75,28.45,22,3,22,0.00
2013-5-14,103,82,62,60,54,42,83,44,14,28.45,28.21,25,4,25,0.00
2013-5-15,88,76,64,47,43,38,51,32,19,28.50,28.34,15,2,16,0.00
2013-5-16,72,66,62,60,50,44,75,56,37,28.46,28.41,9,0,9,0.00
2013-7-9,97,90,81,77,74,70,73,60,47,28.52,28.44,10,2,10,0.03
2013-7-10,84,77,70,71,65,61,85,67,49,28.67,28.52,11,2,11,0.00
2013-7-11,88,76,63,66,62,57,85,64,45,28.69,28.55,10,2,13,0.00
2013-7-12,92,79,67,73,65,59,79,64,53,28.60,28.49,17,3,17,0.00
2013-7-13,90,79,70,75,67,61,77,67,59,28.56,28.49,19,3,19,0.01
2013-7-14,88,78,69,67,63,58,77,62,44,28.74,28.56,17,2,17,0.00
2013-7-15,90,77,66,76,67,62,90,73,53,28.78,28.69,16,1,16,0.09
2013-7-16,92,81,69,72,68,64,92,68,46,28.84,28.75,13,1,13,0.00
2013-7-17,95,84,73,73,70,69,87,66,46,28.87,28.73,11,1,11,0.00
2013-7-18,95,84,74,72,69,67,82,62,43,28.74,28.50,20,3,20,0.00
2013-7-19,94,84,76,76,66,60,79,57,35,28.51,28.44,13,2,13,0.02
2013-7-20,90,78,66,67,62,55,82,59,38,28.58,28.43,12,1,12,0.00
2013-7-21,92,78,71,76,70,63,97,77,51,28.50,28.34,11,1,11,0.60
2013-7-22,94,81,69,77,72,64,97,76,50,28.42,28.32,16,2,16,0.02
2013-7-23,83,73,65,68,63,60,94,72,54,28.60,28.41,15,2,15,0.04
2013-7-24,83,69,60,64,59,57,92,73,51,28.68,28.58,11,1,11,0.00
2013-7-25,84,74,69,70,64,61,84,71,54,28.64,28.56,7,2,20,0.00
2013-7-26,78,71,62,67,59,52,94,69,45,28.70,28.56,6,3,18,0.00
2013-7-27,74,65,56,53,50,45,86,60,39,28.74,28.61,16,2,16,0.00
2013-7-28,79,65,50,53,49,46,90,59,35,28.69,28.62,10,1,10,0.00
2013-7-29,67,62,58,63,57,49,97,84,62,28.67,28.61,10,1,10,0.09
2013-7-30,73,68,64,67,65,63,98,88,78,28.71,28.63,11,1,11,0.01
2013-7-31,86,74,62,68,64,61,97,75,48,28.75,28.63,11,1,11,0.00
2013-8-1,88,74,63,70,65,60,96,76,44,28.68,28.43,24,2,24,0.21
2013-8-2,83,74,66,70,66,60,95,77,60,28.61,28.43,11,2,13,0.00
2013-8-3,79,70,62,62,59,57,86,68,53,28.78,28.61,13,1,13,0.00
2013-8-4,80,70,60,66,61,55,86,73,59,28.78,28.62,13,2,13,0.00
2013-8-5,88,75,68,75,70,65,94,86,64,28.63,28.42,16,2,16,0.01
2013-8-6,90,78,66,74,71,64,96,81,58,28.54,28.35,18,1,18,0.26
2013-8-7,85,77,69,74,65,60,94,69,46,28.58,28.40,14,2,14,0.00
2013-8-8,78,70,64,68,63,60,89,78,61,29.62,28.53,7,1,7,0.00
2013-8-9,81,72,63,70,63,58,97,77,54,29.74,29.61,11,1,11,0.00
2013-8-10,85,72,60,66,61,58,96,71,48,29.81,29.67,11,1,11,0.00
2013-8-11,89,76,66,72,65,60,86,70,51,29.72,29.57,17,2,17,0.00
2013-8-12,85,76,68,70,65,60,90,71,44,29.66,29.57,13,2,13,0.00
2013-8-13,80,70,61,63,58,55,88,66,45,29.77,29.66,7,1,9,0.00
2013-8-14,77,67,58,63,58,54,92,73,56,29.80,29.68,10,1,10,0.05
2013-8-15,65,62,59,61,59,58,97,92,82,29.73,29.65,15,2,15,0.84
2013-8-16,75,66,60,62,59,57,92,79,61,29.79,29.72,11,1,11,0.00
2013-8-17,80,69,60,62,58,55,93,70,48,29.81,29.71,13,1,13,0.00
2013-8-18,82,70,58,64,59,55,93,71,49,29.76,29.65,16,1,16,0.00
2013-8-19,88,75,64,72,66,61,88,73,57,29.67,29.52,18,2,18,0.00
2013-8-20,91,80,69,73,69,66,89,71,53,29.55,29.48,17,4,17,0.00
2013-8-21,94,81,70,74,70,66,86,70,50,29.58,29.51,17,3,17,0.00
2013-8-22,85,76,70,71,68,65,88,76,59,29.68,29.54,12,1,12,0.00
2013-8-23,91,79,69,74,69,66,93,74,47,29.67,29.55,19,2,19,0.00
2013-8-24,92,82,73,76,71,68,85,71,54,29.65,29.57,17,2,17,0.00
2013-8-25,97,84,72,75,72,69,89,69,46,29.69,29.60,18,3,18,0.00
2013-8-26,97,85,74,75,71,69,86,66,46,29.65,29.51,20,4,20,0.00
2013-8-27,99,86,76,73,69,66,75,60,40,29.53,29.45,20,4,20,0.00
2013-8-28,97,82,71,72,67,63,81,61,36,29.57,29.49,12,2,12,0.00
2013-8-29,98,84,73,76,72,66,89,69,45,29.58,29.46,13,1,13,0.00
2013-8-30,98,84,73,79,72,68,83,68,41,29.47,29.39,12,2,12,0.00
2013-8-31,95,81,72,74,71,67,90,74,42,29.46,29.35,13,1,13,0.00
2013-9-1,84,75,68,71,64,58,96,72,46,29.59,29.34,22,2,22,0.69
2013-9-2,80,69,60,61,57,50,93,69,37,29.70,29.58,12,1,12,0.00
2013-9-3,86,71,56,65,60,55,96,72,45,29.71,29.61,12,1,12,0.00
2013-9-4,86,76,68,67,62,59,77,65,43,29.75,29.62,10,1,10,0.00
2013-9-5,82,73,66,72,66,62,96,78,61,29.79,29.67,9,1,9,0.34
2013-9-6,92,79,68,74,67,61,81,69,53,29.69,29.48,14,2,14,0.01
2013-9-7,90,80,72,74,70,66,86,72,49,29.50,29.42,15,2,15,0.00
2013-9-8,93,80,70,77,72,69,96,78,54,29.50,29.36,14,1,14,0.00
2013-9-9,98,85,76,72,64,58,78,52,28,29.42,29.34,23,4,23,0.00
2013-9-10,98,79,69,72,65,60,92,64,36,29.64,29.42,20,2,20,0.45
2013-9-11,84,74,69,73,68,65,97,83,59,29.70,29.62,7,1,10,0.35
2013-9-12,79,72,63,68,57,49,90,63,38,29.82,29.69,11,2,11,0.00
2013-9-13,75,64,53,55,52,49,89,66,45,29.84,29.68,9,1,10,0.00
2013-9-14,78,65,54,57,52,46,79,64,45,29.69,29.48,18,2,18,0.00
2013-9-15,68,65,61,64,58,53,95,79,61,29.85,29.45,15,3,15,0.60
2013-9-16,69,61,55,57,54,52,92,79,65,29.94,29.81,12,2,14,0.01
2013-9-17,71,63,56,67,61,55,97,93,87,29.82,29.50,12,2,12,0.18
2013-9-18,91,77,66,72,68,64,95,75,48,29.51,29.27,25,3,25,0.00
2013-9-19,82,71,59,70,63,50,93,75,59,29.59,29.29,17,3,17,0.25
2013-9-20,71,60,50,52,47,44,85,64,41,29.69,29.58,16,3,17,0.00
2013-9-21,75,60,46,54,49,43,94,68,44,29.66,29.48,7,1,10,0.00
2013-9-22,80,67,54,60,54,51,90,65,40,29.52,29.40,15,2,16,0.00
2013-9-23,77,66,55,58,52,50,85,64,44,29.45,29.32,22,3,22,0.00
2013-9-24,72,65,60,60,56,53,90,75,62,29.51,29.32,13,2,13,0.00
2013-9-25,80,66,54,62,58,53,96,76,51,29.53,29.35,11,1,12,0.01
2013-9-26,86,72,61,63,60,58,92,68,43,29.42,29.33,16,3,19,0.00
2013-9-27,87,76,66,65,62,59,84,63,41,29.44,29.34,26,3,26,0.05
2013-9-28,72,63,52,64,52,43,94,70,44,29.67,29.25,21,3,21,0.47
2013-9-29,77,61,48,50,45,42,84,59,33,29.68,29.50,17,2,17,0.00
2013-9-30,81,66,53,55,51,46,84,61,38,29.52,29.31,21,3,21,0.00
2013-10-1,80,67,55,55,52,47,87,60,36,29.56,29.37,10,2,11,0.00
2013-10-2,85,71,58,67,60,48,94,71,47,29.57,29.41,15,2,15,0.00
2013-10-3,77,68,60,66,62,59,95,82,65,29.46,29.31,18,2,18,1.36
2013-10-4,80,66,53,73,61,40,97,85,57,29.49,29.22,27,4,27,0.88
2013-10-5,54,47,42,40,36,33,82,65,52,29.56,29.45,28,7,28,0.00
2013-10-6,48,45,41,46,42,36,94,91,76,29.65,29.41,20,4,20,0.18
2013-10-7,73,56,40,47,42,38,92,63,33,29.73,29.62,11,2,17,0.01
2013-10-8,76,62,50,51,45,42,76,56,36,29.62,29.50,21,3,21,0.00
2013-10-9,76,64,53,56,51,47,82,64,45,29.62,29.53,15,2,15,0.00
2013-10-10,78,66,55,59,53,49,81,65,45,29.60,29.40,11,2,18,0.00
2013-10-11,78,65,54,61,52,41,84,64,31,29.49,29.23,28,4,28,0.00
2013-10-12,66,56,46,43,37,31,74,52,29,29.91,29.50,16,3,16,0.00
2013-10-13,68,53,39,42,37,32,86,57,33,30.06,29.91,11,1,11,0.00
2013-10-14,58,52,46,57,46,35,96,79,53,29.93,29.34,21,3,22,1.02
2013-10-15,57,48,45,55,41,37,95,78,71,29.70,29.41,24,7,26,0.00
2013-10-16,56,47,43,41,37,30,85,69,38,29.73,29.61,16,3,16,0.00
2013-10-17,60,46,37,43,37,33,87,70,49,29.70,29.53,22,3,22,0.00
2013-10-18,50,42,35,38,34,30,86,74,46,29.78,29.68,11,2,11,0.00